SWARM A

Last updated on Mon Sep 21 2026 00:03:33 GMT+0000 (Coordinated Universal Time)

1 39452U 13067B 26263.59868159 .00008254 00000+0 14224-3 0 9994 2 39452 87.3356 20.7933 0002536 101.7381 258.4165 15.50861890721035
UTC large
Height (km)
Speed (km/s)
/
Latitude / Longitude
Inclination (degrees)
Orbital Period (minutes)
Azimuth
Elevation
Range (km)
Doppler Factor

Next 0 passes for location: London (51.5072 / 0.1276)

No passes found over London.
SWARM A